EW0591 Weather Reports


Display with metric or nautical units.
time (UTC)temp
F
wind
direction
speed
MPH
gust
MPH
rain 1hr
in
rain 24hr
in
rain mn
in
humidity
%
barometer
mb
20260905164717 59 279 0.0 1.0 0.00 0.02 0.02 83 1026.4
20260905164217 59 269 1.0 1.0 0.00 0.02 0.02 83 1026.4
20260905163713 58 209 0.0 0.0 0.00 0.02 0.02 84 1026.6
20260905163209 59 224 1.0 2.0 0.00 0.02 0.02 86 1026.6
20260905162705 58 275 1.0 1.0 0.00 0.02 0.02 89 1026.9
20260905162204 57 231 0.0 1.0 0.00 0.02 0.02 91 1026.6
20260905161659 56 325 1.0 1.0 0.00 0.02 0.02 92 1026.6
20260905161157 56 80 1.0 1.0 0.00 0.02 0.02 94 1026.5
20260905160650 55 16 1.0 1.0 0.00 0.02 0.02 94 1026.5
20260905160150 54 305 2.0 2.0 0.00 0.02 0.02 94 1026.6
20260905155644 54 222 0.0 0.0 0.00 0.02 0.02 95 1026.5
20260905155143 54 250 0.0 0.0 0.00 0.02 0.02 95 1026.6
20260905154638 54 273 1.0 1.0 0.00 0.02 0.02 95 1026.4
20260905154133 53 273 0.0 0.0 0.00 0.02 0.02 95 1026.8
20260905153629 53 253 0.0 0.0 0.00 0.02 0.02 95 1026.4
20260905153124 53 278 0.0 0.0 0.00 0.02 0.02 95 1026.9
20260905152619 52 279 1.0 1.0 0.00 0.02 0.02 95 1026.4
20260905152114 52 286 0.0 0.0 0.00 0.02 0.02 95 1026.8
20260905151609 52 268 0.0 0.0 0.00 0.02 0.02 95 1026.6
20260905151104 52 282 0.0 1.0 0.00 0.02 0.02 95 1026.4
20260905150600 52 260 0.0 0.0 0.00 0.02 0.02 95 1026.8
20260905150057 52 327 1.0 2.0 0.00 0.02 0.02 95 1026.5
20260905145551 52 284 0.0 1.0 0.00 0.02 0.02 95 1026.6
20260905145050 52 302 2.0 2.0 0.00 0.02 0.02 95 1026.6
20260905144545 52 248 1.0 1.0 0.00 0.02 0.02 95 1026.6
20260905144044 52 357 3.0 3.0 0.00 0.02 0.02 95 1026.0
20260905143544 52 198 2.0 2.0 0.00 0.02 0.02 95 1026.9
20260905143039 52 254 0.0 0.0 0.00 0.02 0.02 95 1026.6
20260905142537 52 317 1.0 2.0 0.00 0.02 0.02 95 1026.5
20260905142032 52 207 1.0 1.0 0.00 0.02 0.02 95 1026.6
20260905141527 52 250 0.0 0.0 0.00 0.02 0.02 95 1026.1
20260905141024 52 255 0.0 0.0 0.00 0.02 0.02 95 1026.1
20260905140524 52 236 0.0 0.0 0.00 0.02 0.02 95 1026.2
20260905140023 52 224 2.0 2.0 0.00 0.02 0.02 95 1026.6
20260905135519 52 185 3.0 3.0 0.00 0.02 0.02 95 1026.5
20260905135013 52 196 3.0 3.0 0.00 0.02 0.02 95 1026.3
20260905134508 51 256 0.0 0.0 0.00 0.02 0.02 95 1025.9
20260905134007 51 221 0.0 0.0 0.00 0.02 0.02 95 1025.8
20260905133503 51 207 0.0 0.0 0.00 0.02 0.02 95 1026.1
20260905133002 51 230 0.0 0.0 0.00 0.02 0.02 95 1026.2
20260905132457 51 205 0.0 0.0 0.00 0.02 0.02 95 1025.8
20260905131951 51 193 1.0 1.0 0.00 0.02 0.02 95 1026.4
20260905131447 50 196 0.0 0.0 0.00 0.02 0.02 95 1025.8
20260905130948 51 241 0.0 0.0 0.00 0.02 0.02 95 1025.8
20260905130441 51 245 0.0 0.0 0.00 0.02 0.02 95 1025.4
20260905125941 51 246 0.0 0.0 0.00 0.02 0.02 95 1025.5
20260905125436 51 236 0.0 0.0 0.00 0.02 0.02 95 1025.4
20260905124932 51 214 1.0 1.0 0.00 0.02 0.02 95 1025.4
20260905124428 51 181 1.0 1.0 0.00 0.02 0.02 95 1025.4
20260905123928 51 177 1.0 2.0 0.00 0.02 0.02 95 1025.2
20260905123425 51 224 1.0 1.0 0.00 0.02 0.02 95 1025.2
20260905122920 51 222 0.0 0.0 0.00 0.02 0.02 95 1025.0
20260905122419 51 190 1.0 1.0 0.00 0.02 0.02 95 1025.3
20260905121915 51 222 0.0 0.0 0.00 0.02 0.02 95 1025.5
20260905121410 51 248 0.0 0.0 0.00 0.02 0.02 95 1025.3
20260905120909 51 282 0.0 0.0 0.00 0.02 0.02 95 1025.2
20260905120404 51 260 0.0 0.0 0.00 0.02 0.02 95 1025.5
20260905115859 51 250 0.0 1.0 0.00 0.02 0.02 95 1025.5
20260905115358 51 237 0.0 0.0 0.00 0.02 0.02 95 1025.8
20260905114853 51 192 2.0 2.0 0.00 0.02 0.02 95 1025.3
20260905114352 51 210 1.0 1.0 0.00 0.02 0.02 95 1025.5
20260905113852 51 244 0.0 1.0 0.00 0.02 0.02 95 1025.0
20260905113348 51 253 0.0 0.0 0.00 0.02 0.02 95 1024.9
20260905112843 51 253 0.0 0.0 0.00 0.02 0.02 95 1025.0
20260905112337 51 240 0.0 0.0 0.00 0.02 0.02 95 1025.1
20260905111833 51 233 0.0 0.0 0.00 0.02 0.02 95 1025.2
20260905111327 51 263 0.0 1.0 0.00 0.02 0.02 95 1025.1
20260905110826 51 272 0.0 1.0 0.00 0.02 0.02 95 1025.0
20260905110320 51 293 0.0 0.0 0.00 0.02 0.02 95 1025.0
20260905105816 51 243 0.0 0.0 0.00 0.02 0.02 95 1025.1
20260905105315 51 238 0.0 0.0 0.00 0.02 0.02 95 1025.2
20260905104809 51 219 1.0 1.0 0.00 0.02 0.02 95 1025.5
20260905104306 51 223 0.0 0.0 0.00 0.02 0.02 95 1025.3
20260905103805 51 239 0.0 0.0 0.00 0.02 0.02 95 1025.3
20260905103300 51 227 1.0 1.0 0.00 0.02 0.02 95 1025.1
20260905102756 51 226 2.0 2.0 0.00 0.02 0.02 95 1024.7
20260905102253 51 224 2.0 2.0 0.07 0.02 0.02 95 1024.4
20260905101752 51 305 1.0 1.0 0.07 0.02 0.02 95 1023.9
20260905101251 51 278 0.0 0.0 0.00 0.01 0.01 95 1024.9
20260905100746 51 305 0.0 1.0 0.00 0.01 0.01 95 1025.4
20260905100242 51 255 0.0 0.0 0.00 0.01 0.01 95 1025.4
20260905095741 51 82 0.0 0.0 0.00 0.01 0.01 95 1025.3
20260905095241 51 227 1.0 1.0 0.00 0.01 0.01 95 1025.7
20260905094736 51 269 1.0 1.0 0.00 0.01 0.01 95 1025.2
20260905094231 51 262 1.0 1.0 0.00 0.01 0.01 95 1025.1
20260905093730 51 256 0.0 0.0 0.00 0.01 0.01 95 1024.7
20260905093226 51 277 0.0 0.0 0.00 0.01 0.01 95 1024.5
20260905092721 51 247 0.0 0.0 0.00 0.01 0.01 95 1025.1
20260905092217 51 277 0.0 0.0 0.00 0.01 0.01 95 1025.0
20260905091711 51 270 0.0 0.0 0.00 0.01 0.01 95 1025.1
20260905091206 51 231 2.0 2.0 0.00 0.01 0.01 95 1025.2
20260905090705 51 272 0.0 0.0 0.00 0.01 0.01 95 1024.1
20260905090201 51 230 0.0 0.0 0.00 0.01 0.01 95 1024.5
20260905085659 51 69 1.0 1.0 0.00 0.01 0.01 95 1024.9
20260905085155 51 249 1.0 1.0 0.00 0.01 0.01 95 1025.1
20260905084655 51 244 1.0 1.0 0.00 0.01 0.01 95 1025.1
20260905084149 51 288 2.0 2.0 0.00 0.01 0.01 95 1025.0
20260905083644 51 339 0.0 1.0 0.00 0.01 0.01 95 1024.8
20260905083140 51 252 1.0 1.0 0.00 0.01 0.01 95 1025.4
20260905082636 51 228 0.0 0.0 0.00 0.01 0.01 95 1025.2
20260905082131 51 236 0.0 0.0 0.00 0.01 0.01 95 1025.1
20260905081631 51 223 0.0 0.0 0.00 0.01 0.01 95 1025.0
20260905081126 51 238 0.0 0.0 0.00 0.01 0.01 95 1025.3
20260905080621 51 268 0.0 0.0 0.05 0.01 0.01 95 1025.1
20260905080115 51 254 1.0 1.0 0.05 0.01 0.01 95 1025.1
20260905075614 51 236 0.0 0.0 0.00 0.00 0.00 95 1024.8
20260905075108 51 228 0.0 0.0 0.00 0.00 0.00 95 1024.8
20260905074607 51 232 0.0 0.0 0.00 0.00 0.00 95 1025.1
20260905074103 51 244 1.0 1.0 0.00 0.00 0.00 95 1025.2
20260905073558 51 233 0.0 0.0 0.00 0.00 0.00 95 1024.9
20260905073054 51 239 0.0 0.0 0.00 0.00 0.00 95 1024.5
20260905072553 51 252 0.0 0.0 0.00 0.00 0.00 95 1024.7
20260905072049 51 193 0.0 1.0 0.00 0.00 0.00 95 1024.2
20260905071546 51 258 0.0 0.0 0.00 0.00 0.00 95 1024.7
20260905071040 51 258 0.0 0.0 0.00 0.00 0.00 95 1024.7
20260905070536 51 265 0.0 0.0 0.00 0.00 0.00 95 1024.3
20260905070031 51 246 0.0 0.0 0.00 0.00 0.00 94 1024.9
20260905065529 51 248 0.0 0.0 0.00 0.00 0.00 94 1024.7
20260905065024 51 293 0.0 0.0 0.00 0.00 0.00 94 1024.7
20260905064519 51 286 0.0 0.0 0.00 0.00 0.00 94 1024.8
20260905064014 51 251 0.0 0.0 0.00 0.00 0.00 94 1024.8
20260905063513 51 228 0.0 0.0 0.00 0.00 0.00 94 1025.1
20260905063010 51 228 0.0 0.0 0.00 0.00 0.00 94 1025.1
20260905062509 51 226 0.0 0.0 0.00 0.00 0.00 94 1025.2
20260905062004 51 253 0.0 0.0 0.00 0.00 0.00 94 1025.0
20260905061500 51 285 1.0 1.0 0.00 0.00 0.00 94 1024.8
20260905060958 51 265 0.0 0.0 0.00 0.00 0.00 94 1024.5
20260905060454 51 245 0.0 0.0 0.00 0.00 0.00 94 1024.7
20260905055955 51 228 0.0 0.0 0.00 0.30 0.30 94 1024.9
20260905055454 51 228 0.0 0.0 0.00 0.30 0.30 94 1024.5
20260905054949 51 228 0.0 0.0 0.00 0.30 0.30 94 1024.9
20260905054445 51 228 0.0 0.0 0.00 0.30 0.30 94 1024.8
20260905053945 51 226 0.0 0.0 0.00 0.30 0.30 94 1024.5
20260905053440 51 258 0.0 0.0 0.00 0.30 0.30 94 1024.7
20260905052936 51 271 0.0 0.0 0.00 0.30 0.30 94 1024.4
20260905052435 51 245 0.0 0.0 0.00 0.30 0.30 94 1024.5
20260905051934 51 245 0.0 0.0 0.00 0.30 0.30 94 1024.4
20260905051430 51 246 0.0 0.0 0.00 0.30 0.30 94 1024.5
20260905050927 51 300 0.0 1.0 0.00 0.30 0.30 94 1024.5
20260905050423 51 295 1.0 1.0 0.00 0.30 0.30 94 1024.5
20260905045919 51 242 0.0 0.0 0.00 0.30 0.30 94 1024.5
20260905045414 52 240 0.0 0.0 0.00 0.30 0.30 94 1024.8
20260905044909 51 301 0.0 0.0 0.00 0.30 0.30 94 1024.7
20260905044404 51 254 1.0 1.0 0.00 0.30 0.30 94 1025.0
20260905043903 52 244 0.0 0.0 0.00 0.30 0.30 94 1024.9
20260905043358 52 261 0.0 0.0 0.00 0.30 0.30 94 1024.5
20260905042858 53 221 0.0 0.0 0.00 0.30 0.30 94 1025.0
20260905042352 53 221 0.0 0.0 0.00 0.30 0.30 94 1024.5
20260905041847 53 220 0.0 0.0 0.00 0.30 0.30 94 1024.5
20260905041343 53 220 0.0 0.0 0.00 0.30 0.30 93 1024.8
20260905040838 53 197 1.0 1.0 0.00 0.30 0.30 93 1025.0
20260905040337 53 223 0.0 0.0 0.00 0.30 0.30 93 1024.5
20260905035836 53 224 0.0 0.0 0.00 0.30 0.30 93 1024.8
20260905035332 53 223 0.0 0.0 0.00 0.30 0.30 93 1024.5
20260905034828 53 208 0.0 0.0 0.00 0.30 0.30 93 1024.8
20260905034324 53 234 0.0 0.0 0.00 0.30 0.30 93 1024.7
20260905033822 53 234 0.0 0.0 0.00 0.30 0.30 93 1025.0
20260905033318 53 241 0.0 0.0 0.00 0.30 0.30 93 1025.0
20260905032817 54 245 1.0 1.0 0.00 0.30 0.30 93 1025.3
20260905032313 54 218 1.0 1.0 0.00 0.30 0.30 93 1025.1
20260905031808 54 186 1.0 1.0 0.00 0.30 0.30 92 1025.1
20260905031304 55 199 1.0 1.0 0.00 0.30 0.30 92 1025.1
20260905030759 55 193 3.0 3.0 0.00 0.30 0.30 92 1025.1
20260905030254 55 152 2.0 2.0 0.00 0.30 0.30 92 1025.1
20260905025748 55 187 2.0 2.0 0.00 0.30 0.30 91 1025.3
20260905025244 55 235 0.0 0.0 0.00 0.30 0.30 91 1025.0
20260905024739 54 242 0.0 0.0 0.00 0.30 0.30 91 1025.1
20260905024235 54 241 0.0 0.0 0.00 0.30 0.30 90 1025.2
20260905023735 54 204 1.0 2.0 0.00 0.30 0.30 90 1025.2
20260905023229 54 237 0.0 0.0 0.00 0.30 0.30 90 1025.4
20260905022724 54 232 0.0 0.0 0.00 0.30 0.30 90 1024.9
20260905022219 55 229 0.0 0.0 0.07 0.30 0.30 89 1025.1
20260905021713 55 241 0.0 0.0 0.07 0.30 0.30 88 1024.7
20260905021208 55 254 0.0 0.0 0.00 0.29 0.29 87 1024.9
20260905020703 55 282 1.0 1.0 0.05 0.29 0.29 87 1024.7
20260905020158 55 247 1.0 1.0 0.05 0.29 0.29 88 1024.7
20260905015657 55 304 1.0 1.0 0.07 0.28 0.28 88 1024.3
20260905015157 55 259 0.0 0.0 0.12 0.28 0.28 88 1024.3
20260905014655 55 337 0.0 0.0 0.05 0.27 0.27 88 1024.3
20260905014151 55 258 0.0 0.0 0.00 0.26 0.26 88 1024.4
20260905013648 55 276 0.0 0.0 0.00 0.26 0.26 89 1024.0
20260905013143 55 234 0.0 0.0 0.00 0.26 0.26 89 1023.6
20260905012638 55 237 0.0 0.0 0.00 0.26 0.26 89 1023.1
20260905012134 55 7 2.0 2.0 0.00 0.26 0.26 88 1023.3
20260905011630 55 18 1.0 2.0 0.00 0.26 0.26 88 1023.4
20260905011126 55 333 1.0 2.0 0.00 0.26 0.26 88 1023.3
20260905010620 56 357 3.0 3.0 0.00 0.26 0.26 87 1023.4
20260905010117 56 269 0.0 1.0 0.12 0.26 0.26 85 1023.6
20260905005612 56 30 3.0 3.0 0.19 0.26 0.26 83 1022.8
20260905005108 58 336 3.0 5.0 0.07 0.24 0.24 77 1023.1
20260905004608 61 290 4.0 6.0 0.00 0.23 0.23 68 1023.4
20260905004103 62 275 4.0 5.0 0.00 0.23 0.23 63 1023.2
20260905003558 64 305 5.0 6.0 0.00 0.23 0.23 58 1022.5
20260905003054 64 319 4.0 6.0 0.00 0.23 0.23 57 1021.9
20260905002549 64 330 7.0 7.0 0.00 0.23 0.23 54 1021.9
20260905002049 64 331 7.0 9.0 0.00 0.23 0.23 54 1021.2
20260905001539 64 339 9.0 11.0 0.00 0.23 0.23 53 1021.2
20260905001038 65 331 10.0 11.0 0.00 0.23 0.23 54 1021.3
20260905000534 65 340 8.0 9.0 0.00 0.23 0.23 55 1021.1
20260905000030 65 341 7.0 8.0 0.00 0.23 0.23 55 1021.3
20260904235524 65 347 7.0 9.0 0.00 0.23 0.23 54 1021.3
20260904235019 65 339 8.0 9.0 0.00 0.23 0.23 55 1021.5
20260904234518 65 335 7.0 9.0 0.00 0.23 0.23 57 1021.3
20260904234015 65 332 7.0 8.0 0.00 0.23 0.23 56 1021.5
20260904233510 65 319 8.0 10.0 0.00 0.23 0.23 54 1021.6
20260904233006 66 336 8.0 10.0 0.00 0.23 0.23 54 1021.3
20260904232502 67 350 6.0 8.0 0.00 0.23 0.23 54 1021.3
20260904231958 67 357 7.0 9.0 0.00 0.23 0.23 52 1021.2
20260904231454 66 346 10.0 16.0 0.00 0.23 0.23 54 1021.3
20260904230948 68 1 7.0 9.0 0.00 0.23 0.23 53 1021.5
20260904230447 68 338 4.0 5.0 0.00 0.23 0.23 52 1021.3
20260904225942 68 320 5.0 6.0 0.00 0.23 0.23 50 1021.2
20260904225440 68 351 3.0 3.0 0.00 0.23 0.23 50 1021.3
20260904224935 69 333 8.0 10.0 0.00 0.23 0.23 51 1021.2
20260904224431 69 61 4.0 6.0 0.00 0.23 0.23 53 1021.3
20260904223930 68 5 4.0 5.0 0.00 0.23 0.23 52 1021.2
20260904223429 67 10 9.0 11.0 0.00 0.23 0.23 54 1021.0
20260904222925 66 328 4.0 5.0 0.00 0.23 0.23 57 1021.3
20260904222421 66 337 5.0 6.0 0.00 0.23 0.23 57 1021.2
20260904221920 66 15 7.0 7.0 0.00 0.23 0.23 55 1021.6
20260904221415 66 328 9.0 13.0 0.00 0.23 0.23 56 1021.2
20260904220911 65 349 5.0 7.0 0.00 0.23 0.23 57 1021.0
20260904220410 65 344 6.0 7.0 0.00 0.23 0.23 57 1021.1
20260904215905 66 319 3.0 3.0 0.00 0.23 0.23 57 1021.0
20260904215400 66 335 7.0 8.0 0.00 0.23 0.23 55 1020.8
20260904214856 67 10 7.0 9.0 0.00 0.23 0.23 56 1020.8
20260904214352 66 46 8.0 9.0 0.00 0.23 0.23 56 1020.9
20260904213850 67 251 2.0 3.0 0.00 0.23 0.23 58 1020.8
20260904213345 68 38 6.0 8.0 0.00 0.23 0.23 53 1020.8
20260904212842 68 333 9.0 11.0 0.00 0.23 0.23 55 1020.5
20260904212341 68 327 16.0 21.0 0.00 0.23 0.23 55 1020.7
20260904211837 67 317 9.0 11.0 0.00 0.23 0.23 57 1020.9
20260904211331 68 352 7.0 9.0 0.00 0.23 0.23 54 1021.0
20260904210826 67 339 2.0 3.0 0.00 0.23 0.23 55 1020.9
20260904210320 68 5 10.0 11.0 0.00 0.23 0.23 57 1020.7
20260904205817 67 3 9.0 13.0 0.00 0.23 0.23 57 1021.2
20260904205312 67 5 12.0 14.0 0.00 0.23 0.23 56 1021.0
20260904204809 68 9 6.0 8.0 0.00 0.23 0.23 53 1021.2
20260904204304 67 339 8.0 9.0 0.00 0.23 0.23 55 1021.3
20260904203801 66 320 5.0 7.0 0.00 0.23 0.23 57 1021.5
20260904203256 67 357 7.0 9.0 0.00 0.23 0.23 54 1021.5
20260904202752 67 38 4.0 5.0 0.00 0.23 0.23 55 1021.6
20260904202248 66 25 3.0 5.0 0.00 0.23 0.23 57 1021.6
20260904201744 66 337 5.0 7.0 0.00 0.23 0.23 58 1021.5
20260904201243 65 349 5.0 6.0 0.00 0.23 0.23 60 1021.5
20260904200738 66 325 7.0 9.0 0.00 0.23 0.23 59 1021.3
20260904200233 64 335 5.0 8.0 0.00 0.23 0.23 59 1021.6
20260904195732 64 328 7.0 10.0 0.00 0.23 0.23 61 1021.5
20260904195231 64 337 7.0 10.0 0.00 0.23 0.23 62 1021.7
20260904194726 64 304 3.0 6.0 0.00 0.23 0.23 62 1021.7
20260904194225 65 299 4.0 5.0 0.00 0.23 0.23 63 1021.6
20260904193721 64 16 3.0 3.0 0.00 0.23 0.23 62 1021.8
20260904193216 63 320 6.0 9.0 0.00 0.23 0.23 62 1021.7
20260904192711 63 317 9.0 11.0 0.00 0.23 0.23 62 1021.8
20260904192206 63 323 5.0 7.0 0.00 0.23 0.23 64 1021.8
20260904191703 63 287 8.0 10.0 0.00 0.23 0.23 64 1021.9
20260904191159 63 358 8.0 9.0 0.00 0.23 0.23 64 1021.7
20260904190655 63 356 4.0 6.0 0.00 0.23 0.23 63 1022.1
20260904190151 62 354 6.0 7.0 0.00 0.23 0.23 62 1022.1
20260904185647 62 322 7.0 8.0 0.00 0.23 0.23 63 1022.0
20260904185142 63 322 7.0 10.0 0.00 0.23 0.23 64 1022.0
20260904184640 63 289 1.0 2.0 0.00 0.23 0.23 63 1022.2
20260904184136 61 7 3.0 3.0 0.00 0.23 0.23 65 1022.3
20260904183632 61 275 3.0 3.0 0.00 0.23 0.23 65 1022.2
20260904183126 61 309 3.0 3.0 0.00 0.23 0.23 67 1022.3
20260904182621 60 357 7.0 9.0 0.00 0.23 0.23 70 1022.5
20260904182116 61 256 3.0 6.0 0.00 0.23 0.23 69 1022.5
20260904181612 61 221 0.0 0.0 0.00 0.23 0.23 70 1022.5
20260904181112 61 353 4.0 6.0 0.00 0.23 0.23 70 1022.3
20260904180607 61 81 1.0 2.0 0.00 0.23 0.23 68 1022.6
20260904175602 60 269 1.0 2.0 0.00 0.23 0.23 70 1022.3
20260904175100 60 333 5.0 6.0 0.00 0.23 0.23 70 1022.2
20260904174555 60 314 1.0 2.0 0.00 0.23 0.23 69 1022.6
20260904174052 59 143 2.0 3.0 0.00 0.23 0.23 73 1022.2
20260904173551 58 324 4.0 5.0 0.00 0.23 0.23 75 1022.3
20260904173047 58 305 1.0 2.0 0.00 0.23 0.23 76 1022.3
20260904172543 58 278 0.0 0.0 0.00 0.23 0.23 76 1022.2
20260904172042 57 322 1.0 2.0 0.00 0.23 0.23 76 1022.6
20260904171537 57 333 3.0 3.0 0.00 0.23 0.23 77 1022.3
20260904171033 57 327 2.0 3.0 0.00 0.23 0.23 77 1022.3
20260904170528 57 267 1.0 2.0 0.00 0.23 0.23 76 1022.5
20260904170025 57 286 0.0 0.0 0.00 0.23 0.23 76 1022.5
20260904165523 57 221 0.0 1.0 0.00 0.23 0.23 76 1022.5